Weather in Faiyum

Egypt     29°18′43″N   30°50′08″E
temp.,
°C
wind,
m/s
gust,
m/s
humid.,
%
clouds,
%
prec.,
mm/h
press.,
hPa
HPBL,
m
26 june, sun
sun2623:00+27n711390 0.0 1010513
02:00+24n49540 0.0 1011353
05:00+23n47630 0.0 1011213
08:00+26n55470 0.0 1012807
11:00+32n56240 0.0 10111399
14:00+37n67160 0.0 10091988
17:00+38n89150 0.0 10072565
20:00+32n913260 0.0 1009569
27 june, mon
mon2723:00+28n610370 0.0 1010368
02:00+26n48450 0.0 1010263
05:00+25n36530 0.0 1010170
08:00+29n56430 0.0 1011615
11:00+35nnw67240 0.0 10101720
14:00+38nw89170 0.0 10082663
17:00+36nnw1010180 0.0 10072462
20:00+31nnw711280 0.0 1009556
28 june, tue
tue2823:00+27nnw59440 0.0 1010377
02:00+24n47580 0.0 1009326
05:00+23n35690 0.0 1008148
08:00+27nnw44520 0.0 1009706
11:00+32nw45280 0.0 10081420
14:00+36nw56190 0.0 10062379
17:00+36nw77190 0.0 10062645
20:00+31nnw912380 0.0 1007610
29 june, wed
wed2923:00+27n69550 0.0 1009584
02:00+24nnw47690 0.0 1008330
05:00+23nnw35790 0.0 1008221
08:00+26nnw33570 0.0 1008703
11:00+32wnw34330 0.0 10081414
14:00+36nw44230 0.0 10062307
17:00+36nw55210 0.0 10052740
20:00+33nnw47300 0.0 1006183
30 june, thu
thu3023:00+29nne69460 0.0 1008579
02:00+27nnw35540 0.0 1007220
05:00+25nnw34660 0.0 1007166
08:00+28nw44530 0.0 1008700
11:00+33nw45300 0.0 10081442
14:00+37nw55210 0.0 10062442
17:00+37nnw55200 0.0 10052686
20:00+32nnw812280 0.0 1007425